Regional Weather Roundup
Issued by NWS State College, PA

Home | Current Version | Previous Version | Graphics & Text | Print | Product List | Glossary Off
Versions: 1 2 3 4 5 6 7 8 9 10 11 12 13 14 15 16 17 18 19 20 21 22 23 24 25 26 27 28 29 30 31 32 33 34 35 36 37 38 39 40 41 42 43 44 45 46 47 48 49 50

929
ASUS41 KCTP 052310
RWRCTP

REGIONAL WEATHER ROUNDUP
NATIONAL WEATHER SERVICE STATE COLLEGE PA
700 PM EDT THU MAY 05 2016

Note: "fair" indicates few or no clouds below 12,000 feet with no
significant weather and/or obstructions to visibility.

* = STATION THAT DOES NOT REPORT PRECIPITATION /E.G. RAIN...SNOW...ETC/
    THUNDER OR FOG.

PAZ002>004-007>009-013>016-020>023-029>032-060000-
WESTERN PENNSYLVANIA

CITY           SKY/WX    TMP DP  RH WIND       PRES   REMARKS
ERIE           SUNNY     58  45  62 NE13      29.79S
MEADVILLE      MOSUNNY   54  42  64 N17G28    29.76S
FRANKLIN*      CLOUDY    50  43  76 NW8G22    29.76R
NEW CASTLE     CLOUDY    57  48  72 N8        29.75R
BEAVER COUNTY  PTSUNNY   52  50  93 N6        29.74R
BUTLER*        CLOUDY    55  46  71 N6        29.74S
PITTSBURGH INT CLOUDY    56  46  69 N12       29.71S
PITTSBURGH     CLOUDY    54  47  77 NW13      29.68F
INDIANA*       CLOUDY    61  43  51 NE12G21   29.71S
LATROBE        PTSUNNY   55  52  88 CALM      29.69S
WASHINGTON CO* NOT AVBL
$$

PAZ004>006-010>012-017>019-024>028-033>037-041-042-045-046-049>053-060000-
CENTRAL PENNSYLVANIA

CITY           SKY/WX    TMP DP  RH WIND       PRES   REMARKS
BRADFORD       PTSUNNY   53  39  59 N9        29.74R
DUBOIS         PTSUNNY   57  40  52 N14       29.70R
CLEARFIELD     CLOUDY    55  39  54 NE13G23   29.71R
JOHNSTOWN      CLOUDY    55  38  52 NE14      29.66S
ALTOONA        CLOUDY    55  42  61 NE9       29.67R
STATE COLLEGE  CLOUDY    54  43  66 NE13      29.70R
WILLIAMSPORT   CLOUDY    58  42  55 N6        29.69R
SELINSGROVE    CLOUDY    57  44  62 N9        29.68S
FT INDIANTOWN  CLOUDY    56  46  67 N10       29.64F
CAPITAL CITY   CLOUDY    59  44  57 N6        29.65S
HARRISBURG     CLOUDY    58  44  60 N6        29.64S
YORK           CLOUDY    55  47  74 NW6       29.64F
$$

PAZ038>040-043-044-047-048-054-055-060>062-067>071-060000-
EASTERN PENNSYLVANIA

CITY           SKY/WX    TMP DP  RH WIND       PRES   REMARKS
SCRANTON       CLOUDY    56  44  64 N10       29.66R
MOUNT POCONO   CLOUDY    50  42  74 N7        29.65S
ALLENTOWN      CLOUDY    58  45  62 E8        29.64S
QUAKERTOWN*    CLOUDY    55  46  71 NE9       29.64S
READING        CLOUDY    58  45  62 N6        29.63R
LANCASTER      CLOUDY    55  47  74 N6        29.64S
COATESVILLE    CLOUDY    55  50  82 MISG      29.64S
POTTSTOWN      CLOUDY    56  46  69 NE8       29.64S
BLUE BELL      CLOUDY    54  45  71 NE5       29.62S
DOYLESTOWN     CLOUDY    54  45  71 N10       29.62S
WILLOW GROVE   NOT AVBL
NORTH PHILA    CLOUDY    58  46  64 NE8       29.64S
PHILADELPHIA   CLOUDY    58  44  60 NE12      29.63S
$$




USA.gov is the U.S. government's official web portal to all federal, state and local government web resources and services.